CamptonHillsWeather.com

Find the Weather for any City, State  
or Zipcode, or Country:

Campton Hills, IL Weather
Local Radar

Local Radar

Graphs, Details
Graphs and Gauges
Detailed Weather
Detailed Reports
Ajax Version (old)
Central Kane Co Summary
Davis Current Weather Graphs
Davis 24 Hour Weather History

CW3778 Data

Weather Underground
Maps
Temperature
Heat Index
Windchill
Humidity
Radar
Dew Point
Wind
Visibility
Visible Satellite
Satellite
Fronts
Snow Depth
Jet Stream
Flight Rules
Forecast Maps
Temperature Forecast
Maximum Temperature Forecast
Minimum Temperature Forecast
Dewpoint Forecast
Prevalent Weather
12Hr Probability of Precip.
Sky Cover
Health Maps
UV Forecast
Air Quality
Peak Air Quality Index
Weather Station
Davis Instruments Vantage Pro
Current Conditions [Select Refresh to Update]

Updated: 5:36am on 5/3/16

(location)
Currently:
41.8F

Clear
Clear

High: 42.3 F< 
(12:00am
Low: 39.9 F 
(2:59am)
Wind: SSE 0 mph
Calm
Gust: 1 mph
Today's High Wind: 4 mph (12:00am)
Humidity: 77%
Pressure: 29.98 in  (Steady
Pressure Rate: -0.006 in/hr
Dew Point: 35.1F
Wind Chill: 41.8 F
Heat Index (feels like): 45.6 F
Comfort Level: Cool
Temperature Rate:  1.14F/hr
 
5 Day Forecast
 
Tue Wed Thu Fri Sat
Clear Clear Clear Clear Clear
Mostly Cloudy Chance Rain Partly Cloudy Clear Chance T-storms
68 56 58 74 76
45 37 43 54 49

Records and Normals
 
Temperature Forecast Normal Record
High 68 67 84
(2001)
Low 45 43 27
(2004)
 
Links
 
 
Weather Advisories
Full Advisory Text...
Weather Map

Web Cam

Almanac
 
Sunrise:  
5:45am
Moonrise: 
3:59am

Moon Phase:
21%

Sunset: 
7:54pm
Moonset:  
4:16pm
 Star Chart...
Rainfall Totals
Hourly Rain 0.00 in
Daily Rain: 0.00 in
Monthly Rain: 0.44 in
Yearly Rain: 9.54 in
Normal Rain, month to date: 0.36 in
Normal Rain, year to date: 8.48 in
Link to Village of Campton Hills Map

Link to Counties of Illinois Map

Local Weather Exchange Network
Station ID City 
(Click for Map Location)
Neighborhood 
(Click for History)
Last Update (Date & Time) Temperature
 ()
Dew
Point ()
Humidity 
(%)
Wind 
(mph)
from the Wind Gust 
(mph) 
Pressure(in) Hourly
Rain(in)
KILSAINT20 Saint Charles Knoll Creek Drive 05/03 05:22:34 41.9 34.0 74 0 North 0 29.92 0.00
KILSAINT17 Saint Charles Glen Oak Lane 05/03 05:25:41 38.8 33.0 80 0 North 0 30.03 0.00
KILSAINT10 Saint Charles Saint Charles Burr Road 05/03 05:14:34 36.9 35.0 94 0 NE 0 29.71 0.00
KILGENEV5 Geneva meso_neigh4 05/03 05:27:47 40.4 36.0 83 0 SSW 9 29.93 0.00
KILSTCHA10 St. Charles Hunt Club 05/03 05:28:03 34.7 28.0 75 0 ENE 0 29.50 0.00
KILWAYNE5 Wayne Persimmon Drive 05/03 05:27:11 41.4 36.0 81 0 North 0 30.05 0.00
KILSAINT8 Saint Charles St. Charles Near West Side 05/03 05:18:29 33.6 32.0 94 0 West 0 29.74 0.00
KILWAYNE4 Wayne Hampton Course 05/03 05:26:04 41.0 36.0 82 0 North 0 30.06 0.00
KILSAINT7 Saint Charles Silver Glen 05/03 05:27:56 38.5 38.0 99 0 WSW 0 29.61 0.00
KILCAMPT3 Campton Hills Campton Hills 05/03 05:28:09 37.8 36.0 95 0 NNW 0 29.99 0.00
KILSAINT6 Saint Charles 3 Lakes 05/03 05:14:35 34.7 32.0 88 0 SW 0 29.72 0.00
KILGENEV16 Geneva Fisher Farms 05/03 05:25:12 32.0 32.0 98 0 NNE 0 29.15 0.00
KILSOUTH10 South Elgin East Thornwood Drive 05/03 05:26:56 36.3 30.0 79 0 North 0 29.00 0.00
KILSAINT9 Saint Charles Fox Chase 05/03 05:27:56 36.7 36.0 97 0 NW 0 --- 0.00
KILGENEV6 Geneva Dover Ridge 05/03 05:28:10 36.6 35.0 93 0 ENE 0 29.96 0.00
MUR354 Geneva MesoWest 05/03 04:40:00 34.0 0.0 0 2 WNW 2 0.00 0.00
KILELBUR18 Elburn Elodie Drive 05/03 05:25:51 44.8 34.0 65 0 North 0 28.48 0.00
KILGENEV10 Geneva Southampton Drive 05/03 05:27:00 35.4 35.0 98 0 North 0 30.04 0.00
KILSTCHA8 St. Charles Ronzheimer Ave. & S. Tyler Rd. 05/03 05:28:08 37.5 34.0 87 0 East 0 29.96 0.00
KILGENEV3 Geneva Mill Creek (Blackberry Way) 05/03 05:28:10 34.5 33.0 93 0 NE 0 30.02 0.00
KILSTCHA1 St Charles CamptonHillsWeather.com Central Kane County 05/03 05:28:10 41.6 35.0 78 0 SSE 1 29.98 0.00
KILGENEV7 Geneva Eldorado Drive 05/03 05:26:30 39.9 36.0 87 0 North 0 29.90 0.00
KILGENEV8 Geneva Alexander Drive 05/03 05:26:06 52.5 34.0 48 0 North 0 29.91 0.00
KILGENEV13 Geneva Alexander Drive 05/03 05:25:58 35.8 34.0 94 0 North 0 29.98 0.00
KILSOUTH5 South Elgin Concord Park 05/03 05:26:11 33.3 32.0 97 0 SSW 0 29.72 0.00
KILWAYNE7 Wayne Honey Hill 05/03 05:24:00 32.9 33.0 99 0 North 0 30.22 0.00
KILGENEV2 Geneva Mill Creek 05/03 05:17:34 40.4 36.0 85 0 WNW 1 29.93 0.00
KILBATAV13 Batavia Blackhawk Dr, Batavia 05/03 05:28:08 36.1 35.0 97 0 East 0 29.99 0.00
KILELBUR11 Elburn Cheval de Selle 05/03 05:20:50 39.2 34.0 81 0 NNE 0 29.95 0.00
KILBATAV7 Batavia Charleston Street 05/03 05:26:38 37.2 35.0 93 0 North 0 30.04 0.00
KILBATAV16 Batavia Park Street 05/03 05:28:04 34.3 34.0 99 0 NE 0 29.23 0.00
KILELBUR13 Elburn Hicks Drive 05/03 05:25:27 58.8 42.0 54 0 North 0 29.82 0.00
KILBATAV6 Batavia Tri Cities on the Fox River 2 05/03 05:00:20 40.3 33.0 75 0 SE 0 30.01 0.00
KILBATAV1 Batavia Tri-Cities on the Fox River 05/03 05:26:51 37.9 29.0 71 0 ENE 0 29.98 0.00
KILELGIN16 Elgin Providence Subdivision 05/03 05:21:26 38.7 33.0 80 0 NNW 0 29.70 0.00
KILELBUR10 Elburn Prairie Valley North 05/03 05:27:58 38.5 34.0 84 0 West 0 29.81 0.00
KILELGIN20 Elgin Williamsburg Drive 05/03 05:26:48 41.5 34.0 75 0 North 0 29.94 0.00
KILELBUR15 Elburn East North Street 05/03 05:27:09 45.3 35.0 66 0 North 0 29.79 0.00
KILBATAV10 Batavia Deerpath Road 05/03 05:26:27 41.2 36.0 82 0 North 0 29.99 0.00
KILELBUR9 Elburn Griffith Avenue 05/03 05:25:42 42.4 36.0 78 0 North 0 29.19 0.00
Full Advisory Text
No Warnings

Ambient Weather and Weather Underground
 Never base important decisions on this or any weather information obtained from the Internet
Updated Automatically by Ambient Weather's Virtual Weather Station  V13.01